Location: Camerons Lookout
(40.9833°S, 175.9333°E)
Time: 06:30:27
(UTC+00:00)

SJ 16-02 - Pass Details

Date: 14 January 2026
Orbit: 582 x 594 km, 75.0° (Epoch: 17 February)

Event Time Altitude Azimuth Distance (km) Brightness Sun altitude
Rises 08:38:11 0° 304° (WNW) 2,839 5.0 -8.5°
Reaches altitude 10° 08:41:01 10° 284° (WNW) 1,947 4.5 -8.9°
Maximum altitude 08:44:01 18° 240° (WSW) 1,503 4.6 -9.3°
Drops below altitude 10° 08:47:02 10° 197° (SSW) 1,964 4.9 -9.8°
Sets 08:49:55 0° 177° (S) 2,875 5.4 -10.2°
